CST,Max TemperatureF,Mean TemperatureF,Min TemperatureF,Max Dew PointF,MeanDew PointF,Min DewpointF,Max Humidity, Mean Humidity, Min Humidity, Max Sea Level PressureIn, Mean Sea Level PressureIn, Min Sea Level PressureIn, Max VisibilityMiles, Mean VisibilityMiles, Min VisibilityMiles, Max Wind SpeedMPH, Mean Wind SpeedMPH, Max Gust SpeedMPH,PrecipitationIn, CloudCover, Events, WindDirDegrees
2013-1-1,17,3,-11,14,1,-15,93,85,67,30.23,30.17,30.03,10,10,10,9,3,,0.00,5,Snow,224
2013-1-2,26,17,8,27,15,5,100,92,85,30.08,29.98,29.93,10,6,1,13,5,20,0.00,6,Snow,231
2013-1-3,19,14,8,16,9,3,93,86,73,30.26,30.19,30.08,10,8,3,13,9,22,0.00,4,Snow,277
2013-1-4,28,20,10,19,16,9,100,83,64,30.14,30.09,30.05,10,10,5,13,8,21,0.00,0,,239
2013-1-5,28,18,8,21,15,7,100,88,74,30.10,29.96,29.84,10,8,4,16,6,24,0.00,1,,239
2013-1-6,19,14,8,18,11,5,100,87,73,30.21,30.14,30.01,10,10,7,12,7,16,0.00,1,,257
2013-1-7,35,28,21,32,25,18,100,85,69,30.07,29.96,29.91,10,9,3,20,11,26,0.00,0,,210
2013-1-8,37,24,12,34,23,10,100,91,81,29.97,29.88,29.77,10,6,0,16,5,24,0.00,3,Fog,197
2013-1-9,37,32,28,30,27,25,93,83,70,30.36,30.22,29.96,10,10,10,16,9,22,0.00,1,,242
2013-1-10,39,34,28,36,30,25,100,82,56,30.33,30.07,29.72,10,8,0,22,13,28,0.04,4,Fog-Rain-Snow,156
2013-1-11,42,38,35,43,38,36,100,100,100,29.71,29.52,29.41,4,1,0,13,8,18,0.00,8,Fog-Snow,169
2013-1-12,39,24,8,39,13,3,100,81,68,30.05,29.86,29.45,10,9,2,24,14,34,0.00,6,Snow,271
2013-1-13,12,8,3,7,2,0,85,80,72,30.23,30.09,30.00,10,9,4,13,8,18,0.00,4,,296
2013-1-14,21,14,6,14,9,3,100,83,68,30.36,30.31,30.23,10,10,10,10,3,16,0.00,2,Snow,237
2013-1-15,32,24,17,21,16,12,86,72,60,30.28,30.14,29.89,10,10,10,18,9,26,0.00,1,,206
2013-1-16,39,28,17,37,25,12,100,85,74,30.19,29.88,29.72,10,9,2,20,12,25,0.00,4,Rain-Snow,273
2013-1-17,28,17,6,19,12,1,93,78,54,30.37,30.32,30.20,10,10,7,12,5,16,0.00,4,,288
2013-1-18,46,34,23,36,30,19,93,78,60,30.25,29.91,29.75,10,10,10,20,11,26,0.00,1,,217
2013-1-19,44,25,6,36,25,1,93,82,63,30.19,29.87,29.72,10,10,2,26,8,44,0.00,2,,277
2013-1-20,12,6,1,7,0,-4,85,77,62,30.35,30.28,30.21,10,9,2,16,10,24,0.00,2,Snow,303
2013-1-21,1,-4,-9,-4,-10,-17,85,72,65,30.31,30.26,30.23,10,9,3,17,11,26,0.00,0,,300
2013-1-22,12,4,-5,5,-5,-11,85,73,61,30.35,30.27,30.20,10,10,10,9,5,,0.00,2,,283
2013-1-23,19,10,0,14,6,-9,93,77,61,30.52,30.22,30.10,10,8,3,22,8,33,0.00,5,Snow,290
2013-1-24,17,8,-2,5,-5,-11,72,59,45,30.58,30.42,30.15,10,10,10,20,10,25,0.00,2,,122
2013-1-25,24,14,3,18,7,0,86,72,49,30.24,30.08,29.97,10,10,2,21,10,34,0.00,2,Snow,278
2013-1-26,28,14,1,16,6,-2,92,70,54,30.29,30.20,30.09,10,10,10,22,7,29,0.00,3,,152
2013-1-27,33,30,26,34,27,16,100,86,59,30.09,29.90,29.76,10,5,1,18,11,25,0.15,7,Snow,154
2013-1-28,35,32,30,36,33,30,100,100,100,29.89,29.78,29.59,2,1,0,5,1,,0.00,8,Fog,129
2013-1-29,37,34,30,37,34,27,100,99,86,29.67,29.59,29.51,10,6,0,17,6,25,0.00,8,Fog-Snow-Thunderstorm,330
2013-1-30,30,19,8,27,15,5,93,85,79,29.75,29.63,29.55,10,7,2,21,16,32,0.00,8,Snow,322
2013-1-31,6,0,-7,3,-6,-11,85,79,66,30.24,30.00,29.75,10,5,1,20,14,29,0.00,4,Snow,301